| time (UTC) | temp F | wind direction | speed MPH | gust MPH | rain 1hr in | rain 24hr in | rain mn in | humidity % | barometer mb |
| 20260831211803 | 69 | 90 | 3.0 | 6.0 | 0.00 | 0.04 | 0.02 | 44 | 1030.1 |
| 20260831211303 | 69 | 0 | 5.0 | 9.0 | 0.00 | 0.04 | 0.02 | 45 | 1030.4 |
| 20260831210803 | 69 | 17 | 7.0 | 8.0 | 0.00 | 0.04 | 0.02 | 45 | 1030.4 |
| 20260831210303 | 70 | 77 | 6.0 | 9.0 | 0.00 | 0.04 | 0.02 | 45 | 1030.4 |
| 20260831205305 | 70 | 45 | 4.0 | 10.0 | 0.00 | 0.04 | 0.02 | 44 | 1030.4 |
| 20260831204802 | 70 | 90 | 5.0 | 8.0 | 0.00 | 0.04 | 0.02 | 45 | 1030.4 |
| 20260831203303 | 69 | 45 | 9.0 | 12.0 | 0.00 | 0.04 | 0.02 | 46 | 1030.4 |
| 20260831202306 | 68 | 38 | 8.0 | 10.0 | 0.00 | 0.04 | 0.02 | 47 | 1030.4 |
| 20260831201803 | 68 | 45 | 7.0 | 10.0 | 0.00 | 0.04 | 0.02 | 47 | 1030.4 |
| 20260831201303 | 68 | 43 | 8.0 | 12.0 | 0.00 | 0.04 | 0.02 | 47 | 1030.4 |
| 20260831200803 | 67 | 45 | 2.0 | 7.0 | 0.00 | 0.04 | 0.02 | 47 | 1030.8 |
| 20260831200303 | 68 | 0 | 7.0 | 12.0 | 0.00 | 0.04 | 0.02 | 48 | 1030.8 |
| 20260831195803 | 68 | 49 | 10.0 | 13.0 | 0.00 | 0.04 | 0.02 | 48 | 1030.8 |
| 20260831195306 | 67 | 56 | 7.0 | 10.0 | 0.00 | 0.04 | 0.02 | 49 | 1030.8 |
| 20260831194803 | 67 | 45 | 7.0 | 12.0 | 0.00 | 0.04 | 0.02 | 49 | 1031.1 |
| 20260831194303 | 67 | 56 | 7.0 | 12.0 | 0.00 | 0.04 | 0.02 | 50 | 1031.1 |
| 20260831193803 | 66 | 88 | 9.0 | 12.0 | 0.00 | 0.04 | 0.02 | 50 | 1031.1 |
| 20260831193303 | 66 | 58 | 6.0 | 8.0 | 0.00 | 0.04 | 0.02 | 51 | 1031.1 |
| 20260831192803 | 66 | 68 | 6.0 | 10.0 | 0.00 | 0.04 | 0.02 | 52 | 1031.1 |
| 20260831192305 | 66 | 51 | 6.0 | 9.0 | 0.00 | 0.04 | 0.02 | 51 | 1031.1 |
| 20260831191803 | 66 | 45 | 6.0 | 9.0 | 0.00 | 0.04 | 0.02 | 51 | 1031.5 |
| 20260831191303 | 66 | 5 | 6.0 | 9.0 | 0.00 | 0.04 | 0.02 | 51 | 1031.5 |
| 20260831190803 | 65 | 41 | 6.0 | 8.0 | 0.00 | 0.04 | 0.02 | 52 | 1031.5 |
| 20260831190303 | 65 | 43 | 6.0 | 8.0 | 0.00 | 0.04 | 0.02 | 52 | 1031.5 |
| 20260831185803 | 65 | 45 | 5.0 | 8.0 | 0.00 | 0.04 | 0.02 | 51 | 1031.8 |
| 20260831185306 | 65 | 45 | 4.0 | 6.0 | 0.00 | 0.04 | 0.02 | 51 | 1031.5 |
| 20260831184803 | 64 | 22 | 4.0 | 6.0 | 0.00 | 0.04 | 0.02 | 52 | 1031.8 |
| 20260831184302 | 64 | 358 | 3.0 | 6.0 | 0.00 | 0.04 | 0.02 | 54 | 1031.8 |
| 20260831183802 | 63 | 180 | 1.0 | 5.0 | 0.00 | 0.04 | 0.02 | 56 | 1031.8 |
| 20260831183303 | 62 | 312 | 0.0 | 5.0 | 0.00 | 0.04 | 0.02 | 59 | 1031.8 |
| 20260831182803 | 62 | 315 | 3.0 | 6.0 | 0.00 | 0.04 | 0.02 | 61 | 1032.1 |
| 20260831182305 | 62 | 351 | 6.0 | 8.0 | 0.00 | 0.04 | 0.02 | 59 | 1032.1 |
| 20260831181303 | 60 | 315 | 1.0 | 3.0 | 0.00 | 0.04 | 0.02 | 61 | 1032.1 |
| 20260831180803 | 59 | 270 | 3.0 | 7.0 | 0.00 | 0.04 | 0.02 | 65 | 1032.1 |
| 20260831180303 | 59 | 284 | 6.0 | 7.0 | 0.00 | 0.04 | 0.02 | 65 | 1032.1 |
| 20260831175803 | 59 | 315 | 4.0 | 5.0 | 0.00 | 0.04 | 0.02 | 64 | 1032.1 |
| 20260831174803 | 60 | 247 | 0.0 | 0.0 | 0.00 | 0.04 | 0.02 | 61 | 1032.5 |
| 20260831173803 | 60 | 247 | 2.0 | 2.0 | 0.00 | 0.04 | 0.02 | 60 | 1032.5 |
| 20260831173303 | 60 | 358 | 2.0 | 3.0 | 0.00 | 0.04 | 0.02 | 61 | 1032.5 |
| 20260831172803 | 60 | 315 | 2.0 | 5.0 | 0.00 | 0.04 | 0.02 | 60 | 1032.5 |
| 20260831172306 | 60 | 45 | 3.0 | 5.0 | 0.00 | 0.04 | 0.02 | 60 | 1032.5 |
| 20260831171803 | 60 | 315 | 3.0 | 6.0 | 0.00 | 0.04 | 0.02 | 59 | 1032.5 |
| 20260831171303 | 60 | 337 | 3.0 | 5.0 | 0.00 | 0.04 | 0.02 | 58 | 1032.1 |
| 20260831170803 | 60 | 0 | 3.0 | 5.0 | 0.00 | 0.04 | 0.02 | 59 | 1032.1 |
| 20260831170303 | 60 | 135 | 1.0 | 5.0 | 0.00 | 0.04 | 0.02 | 60 | 1032.5 |
| 20260831165803 | 59 | 180 | 3.0 | 6.0 | 0.00 | 0.04 | 0.02 | 59 | 1032.5 |
| 20260831165305 | 59 | 157 | 3.0 | 6.0 | 0.00 | 0.04 | 0.02 | 59 | 1032.5 |
| 20260831164803 | 59 | 225 | 2.0 | 8.0 | 0.00 | 0.04 | 0.02 | 61 | 1032.5 |
| 20260831164303 | 58 | 180 | 6.0 | 8.0 | 0.00 | 0.04 | 0.02 | 61 | 1032.1 |
| 20260831163303 | 58 | 135 | 5.0 | 8.0 | 0.00 | 0.04 | 0.02 | 63 | 1032.5 |
| 20260831162305 | 58 | 135 | 4.0 | 6.0 | 0.00 | 0.04 | 0.02 | 63 | 1032.1 |
| 20260831161803 | 58 | 135 | 2.0 | 5.0 | 0.00 | 0.04 | 0.02 | 63 | 1032.1 |
| 20260831161303 | 60 | 135 | 3.0 | 6.0 | 0.00 | 0.04 | 0.02 | 60 | 1032.1 |
| 20260831160803 | 61 | 90 | 3.0 | 6.0 | 0.00 | 0.04 | 0.02 | 56 | 1032.1 |
| 20260831160303 | 61 | 269 | 5.0 | 9.0 | 0.00 | 0.04 | 0.02 | 55 | 1032.1 |
| 20260831155803 | 61 | 253 | 6.0 | 10.0 | 0.00 | 0.04 | 0.02 | 54 | 1031.8 |
| 20260831155306 | 61 | 246 | 9.0 | 13.0 | 0.00 | 0.04 | 0.02 | 54 | 1031.8 |
| 20260831154803 | 61 | 238 | 10.0 | 15.0 | 0.00 | 0.04 | 0.02 | 54 | 1031.8 |
| 20260831154303 | 61 | 234 | 10.0 | 15.0 | 0.00 | 0.04 | 0.02 | 54 | 1031.8 |
| 20260831153803 | 61 | 231 | 9.0 | 14.0 | 0.00 | 0.04 | 0.02 | 55 | 1031.8 |
| 20260831153303 | 61 | 241 | 8.0 | 15.0 | 0.00 | 0.04 | 0.02 | 55 | 1031.8 |
| 20260831152803 | 61 | 230 | 11.0 | 15.0 | 0.00 | 0.04 | 0.02 | 55 | 1031.8 |
| 20260831152306 | 60 | 230 | 11.0 | 16.0 | 0.00 | 0.04 | 0.02 | 56 | 1031.8 |
| 20260831151803 | 58 | 255 | 6.0 | 9.0 | 0.00 | 0.04 | 0.02 | 60 | 1031.8 |
| 20260831151303 | 57 | 259 | 3.0 | 6.0 | 0.00 | 0.04 | 0.02 | 63 | 1031.8 |
| 20260831150803 | 57 | 270 | 2.0 | 5.0 | 0.00 | 0.04 | 0.02 | 64 | 1031.8 |
| 20260831150303 | 57 | 225 | 1.0 | 3.0 | 0.00 | 0.04 | 0.02 | 65 | 1031.8 |
| 20260831145802 | 57 | 315 | 3.0 | 6.0 | 0.00 | 0.04 | 0.02 | 63 | 1031.8 |
| 20260831145306 | 57 | 135 | 1.0 | 2.0 | 0.00 | 0.04 | 0.02 | 62 | 1031.8 |
| 20260831144803 | 58 | 135 | 2.0 | 3.0 | 0.00 | 0.04 | 0.02 | 62 | 1031.8 |
| 20260831144303 | 58 | 135 | 3.0 | 5.0 | 0.00 | 0.04 | 0.02 | 61 | 1031.5 |
| 20260831143803 | 58 | 180 | 2.0 | 6.0 | 0.00 | 0.04 | 0.02 | 61 | 1031.5 |
| 20260831142803 | 58 | 254 | 5.0 | 6.0 | 0.00 | 0.04 | 0.02 | 61 | 1031.8 |
| 20260831142305 | 58 | 225 | 5.0 | 6.0 | 0.00 | 0.04 | 0.02 | 63 | 1031.5 |
| 20260831141803 | 57 | 225 | 2.0 | 6.0 | 0.00 | 0.04 | 0.02 | 65 | 1031.5 |
| 20260831141303 | 56 | 270 | 3.0 | 8.0 | 0.00 | 0.04 | 0.02 | 66 | 1031.8 |
| 20260831140803 | 55 | 225 | 3.0 | 3.0 | 0.00 | 0.04 | 0.02 | 66 | 1031.5 |
| 20260831140303 | 55 | 270 | 0.0 | 0.0 | 0.00 | 0.04 | 0.02 | 66 | 1031.5 |
| 20260831135803 | 55 | 270 | 0.0 | 0.0 | 0.00 | 0.04 | 0.02 | 67 | 1031.5 |
| 20260831135306 | 55 | 270 | 0.0 | 0.0 | 0.00 | 0.04 | 0.02 | 67 | 1031.5 |
| 20260831133803 | 56 | 224 | 2.0 | 3.0 | 0.00 | 0.04 | 0.02 | 67 | 1031.5 |
| 20260831133303 | 57 | 135 | 1.0 | 3.0 | 0.00 | 0.04 | 0.02 | 64 | 1031.1 |
| 20260831132803 | 57 | 135 | 4.0 | 7.0 | 0.00 | 0.04 | 0.02 | 59 | 1031.1 |
| 20260831132306 | 57 | 286 | 0.0 | 1.0 | 0.00 | 0.04 | 0.02 | 60 | 1031.1 |
| 20260831131304 | 55 | 270 | 6.0 | 7.0 | 0.00 | 0.04 | 0.02 | 67 | 1031.1 |
| 20260831130803 | 55 | 270 | 7.0 | 9.0 | 0.00 | 0.04 | 0.02 | 67 | 1030.8 |
| 20260831130303 | 55 | 270 | 6.0 | 7.0 | 0.00 | 0.04 | 0.02 | 66 | 1030.8 |
| 20260831125803 | 55 | 270 | 6.0 | 6.0 | 0.00 | 0.04 | 0.02 | 65 | 1030.8 |
| 20260831124803 | 56 | 270 | 3.0 | 5.0 | 0.00 | 0.04 | 0.02 | 64 | 1030.8 |
| 20260831123303 | 55 | 270 | 5.0 | 6.0 | 0.00 | 0.04 | 0.02 | 66 | 1030.8 |
| 20260831122804 | 55 | 225 | 5.0 | 6.0 | 0.00 | 0.04 | 0.02 | 66 | 1030.8 |
| 20260831121804 | 55 | 225 | 5.0 | 6.0 | 0.00 | 0.04 | 0.02 | 66 | 1030.8 |
| 20260831121303 | 55 | 225 | 5.0 | 6.0 | 0.00 | 0.04 | 0.02 | 64 | 1030.4 |
| 20260831115803 | 56 | 288 | 2.0 | 6.0 | 0.00 | 0.04 | 0.02 | 61 | 1030.1 |
| 20260831115306 | 56 | 180 | 3.0 | 5.0 | 0.00 | 0.04 | 0.02 | 62 | 1030.4 |
| 20260831114802 | 56 | 225 | 5.0 | 7.0 | 0.00 | 0.04 | 0.02 | 64 | 1030.4 |
| 20260831114303 | 57 | 225 | 5.0 | 7.0 | 0.00 | 0.04 | 0.02 | 61 | 1030.1 |
| 20260831113803 | 57 | 270 | 6.0 | 8.0 | 0.00 | 0.04 | 0.02 | 59 | 1030.1 |
| 20260831113303 | 57 | 254 | 1.0 | 10.0 | 0.00 | 0.04 | 0.02 | 61 | 1030.1 |
| 20260831112803 | 57 | 284 | 10.0 | 13.0 | 0.00 | 0.04 | 0.02 | 61 | 1030.1 |
| 20260831112306 | 57 | 315 | 3.0 | 8.0 | 0.00 | 0.04 | 0.02 | 60 | 1030.1 |
| 20260831111803 | 56 | 331 | 7.0 | 13.0 | 0.00 | 0.04 | 0.02 | 62 | 1030.1 |
| 20260831111303 | 56 | 270 | 4.0 | 8.0 | 0.00 | 0.04 | 0.02 | 64 | 1030.1 |
| 20260831110804 | 56 | 270 | 6.0 | 9.0 | 0.00 | 0.04 | 0.02 | 64 | 1030.4 |
| 20260831110303 | 56 | 270 | 6.0 | 10.0 | 0.00 | 0.04 | 0.02 | 63 | 1030.1 |
| 20260831105803 | 56 | 0 | 6.0 | 9.0 | 0.00 | 0.04 | 0.02 | 62 | 1030.1 |
| 20260831105306 | 56 | 225 | 7.0 | 9.0 | 0.00 | 0.04 | 0.02 | 62 | 1030.1 |
| 20260831104803 | 57 | 225 | 7.0 | 10.0 | 0.00 | 0.04 | 0.02 | 61 | 1030.1 |
| 20260831103803 | 57 | 270 | 6.0 | 10.0 | 0.00 | 0.04 | 0.02 | 60 | 1030.1 |
| 20260831103303 | 56 | 245 | 9.0 | 13.0 | 0.00 | 0.04 | 0.02 | 63 | 1030.1 |
| 20260831102803 | 56 | 225 | 8.0 | 12.0 | 0.00 | 0.04 | 0.02 | 64 | 1030.1 |
| 20260831102305 | 55 | 247 | 7.0 | 10.0 | 0.00 | 0.04 | 0.02 | 65 | 1030.4 |
| 20260831101803 | 56 | 225 | 9.0 | 10.0 | 0.00 | 0.04 | 0.02 | 65 | 1030.1 |
| 20260831101302 | 55 | 270 | 8.0 | 10.0 | 0.00 | 0.04 | 0.02 | 65 | 1030.4 |
| 20260831100803 | 55 | 256 | 8.0 | 13.0 | 0.00 | 0.04 | 0.02 | 66 | 1030.4 |
| 20260831100303 | 55 | 223 | 6.0 | 8.0 | 0.00 | 0.04 | 0.02 | 67 | 1030.1 |
| 20260831094303 | 56 | 90 | 5.0 | 7.0 | 0.00 | 0.04 | 0.02 | 64 | 1030.1 |
| 20260831093803 | 56 | 135 | 3.0 | 7.0 | 0.00 | 0.04 | 0.02 | 62 | 1030.1 |
| 20260831093303 | 57 | 180 | 7.0 | 8.0 | 0.00 | 0.04 | 0.02 | 61 | 1030.1 |
| 20260831092803 | 57 | 225 | 8.0 | 10.0 | 0.00 | 0.04 | 0.02 | 61 | 1030.1 |
| 20260831092306 | 58 | 225 | 8.0 | 9.0 | 0.00 | 0.04 | 0.02 | 58 | 1030.1 |
| 20260831091803 | 58 | 225 | 10.0 | 15.0 | 0.00 | 0.04 | 0.02 | 57 | 1030.1 |
| 20260831090804 | 56 | 232 | 13.0 | 15.0 | 0.00 | 0.04 | 0.02 | 63 | 1030.1 |
| 20260831090303 | 55 | 226 | 12.0 | 15.0 | 0.00 | 0.04 | 0.02 | 68 | 1030.1 |
| 20260831085803 | 54 | 242 | 10.0 | 14.0 | 0.00 | 0.04 | 0.02 | 71 | 1030.1 |
| 20260831085306 | 53 | 239 | 4.0 | 6.0 | 0.00 | 0.04 | 0.02 | 72 | 1030.1 |
| 20260831084803 | 54 | 180 | 3.0 | 5.0 | 0.00 | 0.04 | 0.02 | 70 | 1030.1 |
| 20260831084303 | 55 | 117 | 3.0 | 8.0 | 0.00 | 0.04 | 0.02 | 67 | 1030.1 |
| 20260831083803 | 55 | 210 | 6.0 | 13.0 | 0.00 | 0.04 | 0.02 | 66 | 1030.1 |
| 20260831083303 | 55 | 225 | 10.0 | 15.0 | 0.00 | 0.04 | 0.02 | 67 | 1030.1 |
| 20260831082803 | 55 | 225 | 13.0 | 16.0 | 0.00 | 0.04 | 0.02 | 67 | 1030.1 |
| 20260831082306 | 55 | 225 | 14.0 | 16.0 | 0.00 | 0.04 | 0.02 | 67 | 1030.1 |
| 20260831081803 | 55 | 225 | 14.0 | 17.0 | 0.00 | 0.04 | 0.02 | 67 | 1030.1 |
| 20260831081304 | 55 | 224 | 12.0 | 15.0 | 0.00 | 0.04 | 0.02 | 68 | 1030.1 |
| 20260831080803 | 54 | 225 | 12.0 | 16.0 | 0.00 | 0.04 | 0.02 | 70 | 1030.1 |
| 20260831080304 | 54 | 225 | 11.0 | 14.0 | 0.00 | 0.04 | 0.02 | 72 | 1030.4 |
| 20260831075803 | 53 | 225 | 12.0 | 16.0 | 0.00 | 0.04 | 0.02 | 73 | 1030.7 |
| 20260831075306 | 53 | 212 | 9.0 | 14.0 | 0.00 | 0.04 | 0.02 | 73 | 1030.5 |
| 20260831074803 | 53 | 163 | 12.0 | 15.0 | 0.01 | 0.04 | 0.02 | 73 | 1030.8 |
| 20260831074303 | 54 | 215 | 6.0 | 8.0 | 0.01 | 0.04 | 0.02 | 72 | 1031.1 |
| 20260831073803 | 54 | 148 | 4.0 | 8.0 | 0.01 | 0.04 | 0.02 | 71 | 1031.1 |
| 20260831073303 | 54 | 135 | 2.0 | 9.0 | 0.01 | 0.04 | 0.02 | 71 | 1031.1 |
| 20260831072804 | 54 | 115 | 9.0 | 13.0 | 0.01 | 0.04 | 0.02 | 71 | 1031.1 |
| 20260831072306 | 54 | 2 | 6.0 | 9.0 | 0.02 | 0.04 | 0.02 | 70 | 1030.8 |
| 20260831071803 | 53 | 0 | 3.0 | 7.0 | 0.02 | 0.04 | 0.02 | 73 | 1030.4 |
| 20260831071305 | 52 | 136 | 9.0 | 18.0 | 0.02 | 0.04 | 0.02 | 76 | 1030.4 |
| 20260831070803 | 52 | 139 | 10.0 | 15.0 | 0.02 | 0.04 | 0.02 | 79 | 1030.7 |
| 20260831070303 | 52 | 135 | 9.0 | 15.0 | 0.02 | 0.04 | 0.02 | 77 | 1030.8 |
| 20260831065803 | 53 | 170 | 9.0 | 16.0 | 0.00 | 0.04 | 0.02 | 74 | 1031.1 |
| 20260831065306 | 53 | 217 | 6.0 | 12.0 | 0.00 | 0.04 | 0.02 | 73 | 1031.2 |
| 20260831064803 | 53 | 254 | 3.0 | 14.0 | 0.01 | 0.03 | 0.01 | 74 | 1032.1 |
| 20260831064303 | 53 | 195 | 7.0 | 15.0 | 0.01 | 0.03 | 0.01 | 73 | 1032.1 |
| 20260831063804 | 53 | 214 | 4.0 | 14.0 | 0.01 | 0.03 | 0.01 | 75 | 1032.1 |
| 20260831063304 | 53 | 280 | 5.0 | 8.0 | 0.02 | 0.03 | 0.01 | 77 | 1032.2 |
| 20260831062804 | 53 | 45 | 2.0 | 6.0 | 0.02 | 0.03 | 0.01 | 79 | 1032.4 |
| 20260831062305 | 53 | 135 | 3.0 | 5.0 | 0.01 | 0.02 | 0.00 | 80 | 1032.5 |
| 20260831061804 | 53 | 225 | 2.0 | 5.0 | 0.01 | 0.02 | 0.00 | 79 | 1032.5 |
| 20260831061303 | 54 | 233 | 3.0 | 6.0 | 0.00 | 0.02 | 0.00 | 76 | 1032.5 |
| 20260831060900 | 54 | 315 | 5.0 | 7.0 | 0.00 | 0.02 | 0.00 | 75 | 1032.5 |
| 20260831060303 | 54 | 270 | 5.0 | 8.0 | 0.00 | 0.02 | 0.00 | 75 | 1032.8 |
| 20260831055804 | 53 | 261 | 6.0 | 8.0 | 0.02 | 0.02 | 0.02 | 76 | 1032.5 |
| 20260831055306 | 53 | 225 | 3.0 | 5.0 | 0.02 | 0.02 | 0.02 | 75 | 1032.5 |
| 20260831054804 | 53 | 180 | 5.0 | 13.0 | 0.02 | 0.02 | 0.02 | 74 | 1032.4 |
| 20260831054304 | 53 | 213 | 7.0 | 10.0 | 0.02 | 0.02 | 0.02 | 76 | 1032.1 |
| 20260831053803 | 54 | 225 | 5.0 | 9.0 | 0.02 | 0.02 | 0.02 | 78 | 1032.1 |
| 20260831053304 | 54 | 225 | 6.0 | 7.0 | 0.01 | 0.01 | 0.01 | 78 | 1032.2 |
| 20260831052803 | 54 | 269 | 6.0 | 8.0 | 0.01 | 0.01 | 0.01 | 78 | 1032.5 |
| 20260831052306 | 54 | 270 | 4.0 | 6.0 | 0.01 | 0.01 | 0.01 | 77 | 1032.2 |
| 20260831051804 | 54 | 225 | 2.0 | 5.0 | 0.01 | 0.01 | 0.01 | 75 | 1032.1 |
| 20260831051304 | 54 | 225 | 6.0 | 8.0 | 0.00 | 0.00 | 0.00 | 75 | 1032.1 |
| 20260831050804 | 54 | 225 | 2.0 | 5.0 | 0.00 | 0.00 | 0.00 | 75 | 1031.8 |
| 20260831050304 | 54 | 224 | 5.0 | 6.0 | 0.00 | 0.00 | 0.00 | 76 | 1031.8 |
| 20260831045804 | 54 | 225 | 4.0 | 6.0 | 0.00 | 0.00 | 0.00 | 76 | 1031.8 |
| 20260831045306 | 54 | 180 | 5.0 | 8.0 | 0.00 | 0.00 | 0.00 | 76 | 1031.8 |
| 20260831044804 | 54 | 186 | 6.0 | 7.0 | 0.00 | 0.00 | 0.00 | 76 | 1031.8 |
| 20260831043803 | 54 | 135 | 7.0 | 8.0 | 0.00 | 0.00 | 0.00 | 74 | 1031.5 |
| 20260831042803 | 55 | 90 | 4.0 | 7.0 | 0.00 | 0.00 | 0.00 | 72 | 1031.5 |
| 20260831042306 | 54 | 195 | 4.0 | 8.0 | 0.00 | 0.00 | 0.00 | 73 | 1031.5 |
| 20260831041803 | 54 | 225 | 5.0 | 8.0 | 0.00 | 0.00 | 0.00 | 75 | 1031.5 |
| 20260831040803 | 54 | 270 | 2.0 | 3.0 | 0.00 | 0.00 | 0.00 | 74 | 1031.7 |
| 20260831040303 | 55 | 354 | 3.0 | 7.0 | 0.00 | 0.00 | 0.00 | 72 | 1031.8 |
| 20260831035803 | 56 | 0 | 4.0 | 7.0 | 0.00 | 0.00 | 0.00 | 71 | 1031.8 |
| 20260831035306 | 57 | 21 | 7.0 | 9.0 | 0.00 | 0.00 | 0.00 | 68 | 1031.8 |
| 20260831034803 | 58 | 45 | 7.0 | 8.0 | 0.00 | 0.00 | 0.00 | 64 | 1031.8 |
| 20260831034304 | 58 | 0 | 0.0 | 0.0 | 0.00 | 0.00 | 0.00 | 62 | 1031.8 |
| 20260831033803 | 59 | 0 | 0.0 | 1.0 | 0.00 | 0.00 | 0.00 | 61 | 1031.8 |
| 20260831033303 | 59 | 0 | 1.0 | 5.0 | 0.00 | 0.00 | 0.00 | 60 | 1031.5 |
| 20260831032803 | 59 | 317 | 6.0 | 10.0 | 0.00 | 0.00 | 0.00 | 61 | 1031.2 |
| 20260831032306 | 59 | 294 | 5.0 | 9.0 | 0.00 | 0.00 | 0.00 | 61 | 1031.5 |
| 20260831031304 | 60 | 329 | 10.0 | 20.0 | 0.00 | 0.00 | 0.00 | 57 | 1031.1 |
| 20260831030803 | 60 | 319 | 6.0 | 8.0 | 0.00 | 0.00 | 0.00 | 57 | 1031.1 |
| 20260831025804 | 60 | 308 | 6.0 | 8.0 | 0.00 | 0.00 | 0.00 | 57 | 1030.9 |
| 20260831025306 | 60 | 315 | 6.0 | 10.0 | 0.00 | 0.00 | 0.00 | 58 | 1030.8 |
| 20260831024803 | 60 | 314 | 5.0 | 7.0 | 0.00 | 0.00 | 0.00 | 59 | 1030.8 |
| 20260831024303 | 60 | 292 | 3.0 | 5.0 | 0.00 | 0.00 | 0.00 | 59 | 1030.4 |
| 20260831023803 | 60 | 315 | 3.0 | 6.0 | 0.00 | 0.00 | 0.00 | 58 | 1030.4 |
| 20260831023303 | 60 | 315 | 0.0 | 1.0 | 0.00 | 0.00 | 0.00 | 57 | 1030.1 |
| 20260831022803 | 61 | 315 | 0.0 | 1.0 | 0.00 | 0.00 | 0.00 | 57 | 1030.1 |
| 20260831022306 | 61 | 315 | 2.0 | 3.0 | 0.00 | 0.00 | 0.00 | 57 | 1030.1 |
| 20260831021803 | 61 | 286 | 3.0 | 3.0 | 0.00 | 0.00 | 0.00 | 56 | 1030.1 |
| 20260831020804 | 62 | 270 | 5.0 | 8.0 | 0.00 | 0.00 | 0.00 | 55 | 1030.1 |
| 20260831015305 | 62 | 270 | 6.0 | 7.0 | 0.00 | 0.00 | 0.00 | 55 | 1029.8 |
| 20260831014803 | 62 | 270 | 6.0 | 7.0 | 0.00 | 0.00 | 0.00 | 54 | 1030.0 |
| 20260831014304 | 63 | 270 | 6.0 | 6.0 | 0.00 | 0.00 | 0.00 | 53 | 1029.9 |
| 20260831013803 | 63 | 270 | 5.0 | 6.0 | 0.00 | 0.00 | 0.00 | 53 | 1030.0 |
| 20260831012804 | 64 | 270 | 6.0 | 8.0 | 0.00 | 0.00 | 0.00 | 53 | 1029.9 |
| 20260831012305 | 64 | 270 | 5.0 | 6.0 | 0.00 | 0.00 | 0.00 | 53 | 1029.8 |
| 20260831011804 | 64 | 270 | 5.0 | 6.0 | 0.00 | 0.00 | 0.00 | 53 | 1029.5 |
| 20260831011303 | 64 | 270 | 5.0 | 6.0 | 0.00 | 0.00 | 0.00 | 52 | 1029.4 |
| 20260831010804 | 64 | 270 | 4.0 | 5.0 | 0.00 | 0.00 | 0.00 | 52 | 1029.4 |
| 20260831010303 | 65 | 247 | 3.0 | 5.0 | 0.00 | 0.00 | 0.00 | 51 | 1029.4 |
| 20260831005803 | 65 | 270 | 5.0 | 5.0 | 0.00 | 0.00 | 0.00 | 49 | 1029.4 |
| 20260831005306 | 66 | 270 | 5.0 | 5.0 | 0.00 | 0.00 | 0.00 | 49 | 1029.4 |
| 20260831004804 | 66 | 292 | 3.0 | 5.0 | 0.00 | 0.00 | 0.00 | 48 | 1029.2 |
| 20260831004304 | 66 | 270 | 5.0 | 7.0 | 0.00 | 0.00 | 0.00 | 48 | 1029.1 |
| 20260831003303 | 67 | 285 | 6.0 | 8.0 | 0.00 | 0.00 | 0.00 | 47 | 1029.4 |
| 20260831002804 | 67 | 281 | 3.0 | 5.0 | 0.00 | 0.00 | 0.00 | 47 | 1029.4 |
| 20260831002306 | 67 | 315 | 4.0 | 6.0 | 0.00 | 0.00 | 0.00 | 47 | 1029.4 |
| 20260831001804 | 67 | 0 | 4.0 | 7.0 | 0.00 | 0.00 | 0.00 | 46 | 1029.4 |
| 20260831000804 | 69 | 358 | 7.0 | 10.0 | 0.00 | 0.00 | 0.00 | 45 | 1029.3 |
| 20260831000304 | 70 | 332 | 6.0 | 8.0 | 0.00 | 0.00 | 0.00 | 44 | 1029.4 |
| 20260830235803 | 70 | 359 | 7.0 | 10.0 | 0.00 | 0.00 | 0.00 | 44 | 1029.4 |
| 20260830235305 | 69 | 356 | 7.0 | 10.0 | 0.00 | 0.00 | 0.00 | 45 | 1029.3 |
| 20260830234804 | 68 | 342 | 9.0 | 12.0 | 0.00 | 0.00 | 0.00 | 45 | 1029.1 |
| 20260830234304 | 68 | 0 | 9.0 | 13.0 | 0.00 | 0.00 | 0.00 | 46 | 1029.3 |
| 20260830233803 | 68 | 328 | 10.0 | 12.0 | 0.00 | 0.00 | 0.00 | 46 | 1029.4 |
| 20260830233303 | 68 | 355 | 8.0 | 12.0 | 0.00 | 0.00 | 0.00 | 47 | 1029.4 |
| 20260830232803 | 68 | 324 | 9.0 | 13.0 | 0.00 | 0.00 | 0.00 | 47 | 1029.2 |
| 20260830232306 | 69 | 317 | 12.0 | 15.0 | 0.00 | 0.00 | 0.00 | 47 | 1029.2 |
| 20260830231303 | 70 | 357 | 13.0 | 18.0 | 0.00 | 0.00 | 0.00 | 43 | 1028.8 |
| 20260830230804 | 72 | 336 | 11.0 | 16.0 | 0.00 | 0.00 | 0.00 | 37 | 1029.1 |
| 20260830230304 | 73 | 323 | 5.0 | 10.0 | 0.00 | 0.00 | 0.00 | 35 | 1028.8 |
| 20260830225804 | 74 | 344 | 2.0 | 10.0 | 0.00 | 0.00 | 0.00 | 34 | 1029.1 |
| 20260830225305 | 74 | 223 | 12.0 | 17.0 | 0.00 | 0.00 | 0.00 | 34 | 1029.1 |
| 20260830224804 | 74 | 278 | 10.0 | 16.0 | 0.00 | 0.00 | 0.00 | 35 | 1029.0 |
| 20260830224303 | 73 | 286 | 9.0 | 22.0 | 0.00 | 0.00 | 0.00 | 36 | 1028.7 |
| 20260830222803 | 73 | 223 | 6.0 | 15.0 | 0.00 | 0.00 | 0.00 | 36 | 1029.0 |
| 20260830222306 | 73 | 259 | 2.0 | 10.0 | 0.00 | 0.00 | 0.00 | 36 | 1028.9 |
| 20260830221803 | 72 | 314 | 6.0 | 13.0 | 0.00 | 0.00 | 0.00 | 36 | 1029.1 |
| 20260830220804 | 72 | 242 | 7.0 | 14.0 | 0.00 | 0.00 | 0.00 | 37 | 1028.7 |
| 20260830220304 | 73 | 245 | 9.0 | 20.0 | 0.00 | 0.00 | 0.00 | 37 | 1029.0 |
| 20260830215804 | 73 | 271 | 10.0 | 17.0 | 0.00 | 0.00 | 0.00 | 37 | 1028.7 |
| 20260830215305 | 73 | 135 | 2.0 | 9.0 | 0.00 | 0.00 | 0.00 | 37 | 1028.9 |
| 20260830214803 | 73 | 90 | 8.0 | 21.0 | 0.00 | 0.00 | 0.00 | 37 | 1028.7 |
| 20260830214304 | 73 | 240 | 10.0 | 18.0 | 0.00 | 0.00 | 0.00 | 37 | 1028.8 |
| 20260830213803 | 73 | 308 | 9.0 | 21.0 | 0.00 | 0.00 | 0.00 | 37 | 1028.7 |
| 20260830213304 | 73 | 10 | 7.0 | 13.0 | 0.00 | 0.00 | 0.00 | 38 | 1028.7 |
| 20260830212804 | 73 | 99 | 8.0 | 13.0 | 0.00 | 0.00 | 0.00 | 38 | 1028.7 |